IGO6351 VAAH-VABB

Flight info

Callsign IGO6351
Flight time 0h 47m
Altitude 37000
Route BVR1A BVR R458 BOFIN POKON2A
Aircraft A20N/M-SDE2E3FGHIRWXY/LB1

Departure

Time 2026-04-27 18:05
Airport Sardar Vallabh Patel International Airport (VAAH)

Arrival

Time 2026-04-27 18:52
Airport Chhatrapati Shivaji Maharaj International Airport (VABB)
Time Latitude Longitude Altitude Speed Heading
2026-04-27 17:36 23.07303 72.62618 188 ft 0 kts 136°
2026-04-27 17:53 23.07312 72.62609 196 ft 2 kts 136°
2026-04-27 17:53 23.07323 72.62596 201 ft 2 kts 135°
2026-04-27 17:53 23.07335 72.62584 194 ft 2 kts 135°
2026-04-27 17:54 23.07347 72.62571 200 ft 2 kts 117°
2026-04-27 17:54 23.07351 72.62554 202 ft 2 kts 84°
2026-04-27 17:54 23.07346 72.62536 197 ft 2 kts 52°
2026-04-27 17:54 23.07335 72.62523 202 ft 2 kts 46°
2026-04-27 17:55 23.07328 72.62514 202 ft 2 kts 46°
2026-04-27 17:55 23.07318 72.62504 202 ft 0 kts 46°
2026-04-27 17:56 23.07319 72.62505 202 ft 0 kts 46°
2026-04-27 17:57 23.07320 72.62506 202 ft 1 kts 46°
2026-04-27 17:57 23.07345 72.62535 197 ft 10 kts 46°
2026-04-27 17:58 23.07422 72.62622 192 ft 21 kts 45°
2026-04-27 17:58 23.07515 72.62728 193 ft 13 kts 47°
2026-04-27 17:58 23.07535 72.62751 199 ft 0 kts 47°
2026-04-27 17:58 23.07539 72.62756 197 ft 3 kts 49°
2026-04-27 17:59 23.07536 72.62800 190 ft 8 kts 147°
2026-04-27 17:59 23.07522 72.62810 193 ft 0 kts 148°
2026-04-27 17:59 23.07508 72.62820 197 ft 10 kts 144°
2026-04-27 17:59 23.07456 72.62907 193 ft 15 kts 78°
2026-04-27 18:00 23.07563 72.63021 206 ft 30 kts 43°
2026-04-27 18:00 23.07745 72.63217 197 ft 44 kts 45°
2026-04-27 18:00 23.07886 72.63381 193 ft 13 kts 74°
2026-04-27 18:00 23.07874 72.63421 194 ft 0 kts 130°
2026-04-27 18:01 23.07874 72.63422 193 ft 1 kts 130°
2026-04-27 18:02 23.07856 72.63445 191 ft 8 kts 130°
2026-04-27 18:02 23.07813 72.63517 193 ft 15 kts 98°
2026-04-27 18:02 23.07890 72.63625 197 ft 24 kts 45°
2026-04-27 18:02 23.08028 72.63773 200 ft 31 kts 44°
2026-04-27 18:03 23.08200 72.63958 203 ft 37 kts 46°
2026-04-27 18:03 23.08358 72.64118 204 ft 0 kts 83°
2026-04-27 18:03 23.08355 72.64122 197 ft 2 kts 113°
2026-04-27 18:03 23.08343 72.64118 201 ft 1 kts 221°
2026-04-27 18:04 23.08322 72.64091 203 ft 7 kts 229°
2026-04-27 18:04 23.08282 72.64046 205 ft 11 kts 224°
2026-04-27 18:04 23.08016 72.63766 202 ft 98 kts 224°
2026-04-27 18:04 23.07370 72.63059 308 ft 153 kts 224°
2026-04-27 18:05 23.06596 72.62249 1095 ft 159 kts 223°
2026-04-27 18:05 23.06019 72.61689 1557 ft 174 kts 226°
2026-04-27 18:05 23.04621 72.60381 2072 ft 225 kts 224°
2026-04-27 18:05 23.03378 72.59267 2707 ft 237 kts 223°
2026-04-27 18:06 23.02069 72.58104 3368 ft 250 kts 224°
2026-04-27 18:06 23.00714 72.56852 4085 ft 260 kts 225°
2026-04-27 18:06 22.99377 72.55473 4826 ft 269 kts 227°
2026-04-27 18:06 22.98095 72.53978 5710 ft 269 kts 231°
2026-04-27 18:07 22.96880 72.52455 6711 ft 266 kts 229°
2026-04-27 18:07 22.95651 72.50949 7626 ft 267 kts 230°
2026-04-27 18:07 22.94400 72.49464 8549 ft 267 kts 227°
2026-04-27 18:07 22.93035 72.48090 9475 ft 270 kts 219°
2026-04-27 18:08 22.91298 72.47172 9986 ft 291 kts 196°
2026-04-27 18:08 22.89220 72.46738 10253 ft 316 kts 192°
2026-04-27 18:08 22.86976 72.46327 10518 ft 338 kts 192°
2026-04-27 18:08 22.84640 72.45850 11148 ft 344 kts 193°
2026-04-27 18:09 22.82277 72.45318 11866 ft 349 kts 193°
2026-04-27 18:09 22.79891 72.44746 12590 ft 353 kts 193°
2026-04-27 18:09 22.77505 72.44158 13307 ft 358 kts 193°
2026-04-27 18:09 22.75027 72.43542 13982 ft 362 kts 193°
2026-04-27 18:10 22.72593 72.42937 14641 ft 366 kts 193°
2026-04-27 18:10 22.70099 72.42318 15282 ft 370 kts 193°
2026-04-27 18:10 22.67574 72.41693 15912 ft 374 kts 193°
2026-04-27 18:10 22.65024 72.41061 16536 ft 378 kts 193°
2026-04-27 18:11 22.62440 72.40422 17138 ft 382 kts 193°
2026-04-27 18:11 22.59828 72.39776 17752 ft 386 kts 193°
2026-04-27 18:11 22.57214 72.39131 18299 ft 391 kts 193°
2026-04-27 18:11 22.54554 72.38474 18837 ft 394 kts 193°
2026-04-27 18:12 22.51860 72.37809 19372 ft 398 kts 194°
2026-04-27 18:12 22.49144 72.37139 19899 ft 401 kts 194°
2026-04-27 18:12 22.46406 72.36464 20438 ft 405 kts 194°
2026-04-27 18:12 22.43645 72.35783 20956 ft 409 kts 194°
2026-04-27 18:13 22.40886 72.35103 21482 ft 413 kts 194°
2026-04-27 18:13 22.38075 72.34411 22011 ft 416 kts 194°
2026-04-27 18:13 22.35235 72.33712 22534 ft 420 kts 194°
2026-04-27 18:13 22.32367 72.33007 23042 ft 424 kts 194°
2026-04-27 18:14 22.30449 72.32535 23395 ft 426 kts 194°
2026-04-27 18:14 22.27535 72.31819 23859 ft 428 kts 194°
2026-04-27 18:14 22.23671 72.30870 24499 ft 431 kts 194°
2026-04-27 18:14 22.20734 72.30149 24962 ft 434 kts 194°
2026-04-27 18:15 22.18776 72.29668 25262 ft 435 kts 194°
2026-04-27 18:15 22.15815 72.28942 25717 ft 438 kts 194°
2026-04-27 18:15 22.12831 72.28210 26160 ft 440 kts 194°
2026-04-27 18:15 22.09837 72.27476 26598 ft 442 kts 194°
2026-04-27 18:16 22.06823 72.26737 27027 ft 445 kts 194°
2026-04-27 18:16 22.03795 72.25995 27445 ft 447 kts 194°
2026-04-27 18:16 22.00749 72.25249 27858 ft 449 kts 194°
2026-04-27 18:16 21.97690 72.24500 28270 ft 452 kts 194°
2026-04-27 18:17 21.94614 72.23747 28663 ft 454 kts 194°
2026-04-27 18:17 21.91525 72.22992 29060 ft 456 kts 194°
2026-04-27 18:17 21.88419 72.22233 29439 ft 459 kts 194°
2026-04-27 18:17 21.85304 72.21471 29825 ft 461 kts 194°
2026-04-27 18:18 21.82196 72.20752 30168 ft 463 kts 192°
2026-04-27 18:18 21.78947 72.20273 30533 ft 466 kts 187°
2026-04-27 18:18 21.75694 72.20095 30884 ft 469 kts 182°
2026-04-27 18:18 21.72468 72.20212 31284 ft 471 kts 178°
2026-04-27 18:19 21.69214 72.20622 31751 ft 471 kts 174°
2026-04-27 18:19 21.65993 72.21325 32170 ft 472 kts 169°
2026-04-27 18:19 21.62791 72.22179 32567 ft 471 kts 170°
2026-04-27 18:19 21.59606 72.23020 32964 ft 470 kts 170°
2026-04-27 18:20 21.56423 72.23854 33354 ft 469 kts 171°
2026-04-27 18:20 21.53249 72.24683 33712 ft 468 kts 171°
2026-04-27 18:20 21.50129 72.25497 34022 ft 468 kts 171°
2026-04-27 18:20 21.46968 72.26321 34327 ft 467 kts 171°
2026-04-27 18:21 21.43818 72.27141 34604 ft 466 kts 171°
2026-04-27 18:21 21.40666 72.27962 34889 ft 465 kts 171°
2026-04-27 18:21 21.37517 72.28781 35169 ft 465 kts 171°
2026-04-27 18:21 21.34371 72.29600 35443 ft 464 kts 171°
2026-04-27 18:22 21.31226 72.30417 35711 ft 464 kts 171°
2026-04-27 18:22 21.28083 72.31233 35980 ft 464 kts 171°
2026-04-27 18:22 21.24942 72.32048 36250 ft 463 kts 171°
2026-04-27 18:22 21.21815 72.32859 36515 ft 463 kts 171°
2026-04-27 18:23 21.18686 72.33670 36732 ft 463 kts 171°
2026-04-27 18:23 21.15558 72.34480 36754 ft 462 kts 171°
2026-04-27 18:23 21.09347 72.36090 36759 ft 461 kts 171°
2026-04-27 18:24 21.03120 72.37702 36761 ft 461 kts 171°
2026-04-27 18:24 20.96880 72.39317 36761 ft 461 kts 171°
2026-04-27 18:25 20.90646 72.40926 36760 ft 460 kts 172°
2026-04-27 18:25 20.84416 72.42520 36765 ft 460 kts 172°
2026-04-27 18:26 20.78218 72.44042 36768 ft 457 kts 176°
2026-04-27 18:26 20.71934 72.44464 36767 ft 447 kts 188°
2026-04-27 18:27 20.65846 72.43492 36770 ft 438 kts 200°
2026-04-27 18:27 20.60134 72.41360 36773 ft 433 kts 206°
2026-04-27 18:28 20.55456 72.39444 36775 ft 433 kts 206°
2026-04-27 18:28 20.48911 72.36781 36776 ft 433 kts 206°
2026-04-27 18:29 20.43281 72.34489 36779 ft 432 kts 206°
2026-04-27 18:29 20.37666 72.32205 36777 ft 432 kts 206°
2026-04-27 18:30 20.32049 72.29921 36782 ft 431 kts 206°
2026-04-27 18:30 20.26468 72.27654 36783 ft 431 kts 206°
2026-04-27 18:31 20.20868 72.25381 36784 ft 431 kts 206°
2026-04-27 18:31 20.15261 72.23107 36783 ft 430 kts 206°
2026-04-27 18:32 20.09666 72.20838 36789 ft 430 kts 206°
2026-04-27 18:32 20.04069 72.18572 36781 ft 430 kts 206°
2026-04-27 18:33 19.98488 72.16313 36784 ft 429 kts 206°
2026-04-27 18:33 19.92931 72.14066 36777 ft 429 kts 206°
2026-04-27 18:34 19.87345 72.11809 36781 ft 428 kts 206°
2026-04-27 18:34 19.81482 72.10426 36783 ft 442 kts 187°
2026-04-27 18:35 19.75314 72.11358 36264 ft 458 kts 167°
2026-04-27 18:35 19.72364 72.12758 35504 ft 472 kts 156°
2026-04-27 18:35 19.69669 72.14777 34555 ft 490 kts 145°
2026-04-27 18:36 19.67108 72.17224 33465 ft 501 kts 144°
2026-04-27 18:36 19.64506 72.19728 32338 ft 508 kts 144°
2026-04-27 18:36 19.61883 72.22242 31337 ft 511 kts 144°
2026-04-27 18:36 19.59218 72.24785 30366 ft 513 kts 144°
2026-04-27 18:37 19.56550 72.27321 29282 ft 517 kts 143°
2026-04-27 18:37 19.53880 72.29852 28510 ft 512 kts 143°
2026-04-27 18:37 19.51256 72.32339 27780 ft 501 kts 142°
2026-04-27 18:37 19.48680 72.34778 26844 ft 492 kts 142°
2026-04-27 18:38 19.46136 72.37183 25931 ft 483 kts 141°
2026-04-27 18:38 19.43678 72.39503 25068 ft 475 kts 141°
2026-04-27 18:38 19.41230 72.41813 24219 ft 466 kts 140°
2026-04-27 18:38 19.38827 72.44080 23393 ft 458 kts 140°
2026-04-27 18:39 19.36465 72.46309 22415 ft 450 kts 140°
2026-04-27 18:39 19.34141 72.48503 21467 ft 443 kts 139°
2026-04-27 18:39 19.31860 72.50657 20554 ft 436 kts 139°
2026-04-27 18:39 19.29613 72.52779 19668 ft 428 kts 139°
2026-04-27 18:40 19.27406 72.54861 18798 ft 422 kts 139°
2026-04-27 18:40 19.25232 72.56912 17948 ft 415 kts 139°
2026-04-27 18:40 19.23311 72.59151 16986 ft 409 kts 125°
2026-04-27 18:40 19.22035 72.61768 16070 ft 403 kts 109°
2026-04-27 18:41 19.21474 72.64646 15181 ft 398 kts 93°
2026-04-27 18:41 19.21481 72.67519 14766 ft 380 kts 90°
2026-04-27 18:41 19.21501 72.70259 14242 ft 368 kts 90°
2026-04-27 18:41 19.21505 72.72950 13503 ft 364 kts 91°
2026-04-27 18:42 19.21496 72.75612 12701 ft 359 kts 91°
2026-04-27 18:42 19.21486 72.77358 12180 ft 357 kts 91°
2026-04-27 18:42 19.21464 72.80820 11162 ft 353 kts 91°
2026-04-27 18:42 19.21446 72.83405 10418 ft 349 kts 91°
2026-04-27 18:43 19.21428 72.85951 9926 ft 339 kts 91°
2026-04-27 18:43 19.21412 72.88376 9742 ft 319 kts 91°
2026-04-27 18:43 19.21397 72.90657 9531 ft 302 kts 91°
2026-04-27 18:43 19.21382 72.92833 9036 ft 295 kts 91°
2026-04-27 18:44 19.21365 72.94984 8432 ft 295 kts 90°
2026-04-27 18:44 19.21348 72.97146 7867 ft 293 kts 90°
2026-04-27 18:44 19.21331 72.99292 7326 ft 290 kts 90°
2026-04-27 18:44 19.21314 73.01421 6788 ft 288 kts 89°
2026-04-27 18:45 19.21297 73.03536 6258 ft 286 kts 89°
2026-04-27 18:45 19.21281 73.05637 5713 ft 285 kts 89°
2026-04-27 18:45 19.20969 73.07698 5130 ft 286 kts 111°
2026-04-27 18:45 19.19844 73.09432 4543 ft 288 kts 138°
2026-04-27 18:46 19.18116 73.10455 4041 ft 284 kts 167°
2026-04-27 18:46 19.16157 73.10650 3860 ft 283 kts 180°
2026-04-27 18:46 19.14252 73.10643 3803 ft 262 kts 191°
2026-04-27 18:46 19.13120 73.10341 3808 ft 247 kts 199°
2026-04-27 18:47 19.12047 73.09979 3813 ft 253 kts 200°
2026-04-27 18:47 19.10489 73.09175 3803 ft 246 kts 225°
2026-04-27 18:47 19.09548 73.07707 3735 ft 243 kts 253°
2026-04-27 18:47 19.09198 73.05964 3345 ft 242 kts 268°
2026-04-27 18:48 19.09130 73.04188 3003 ft 240 kts 272°
2026-04-27 18:48 19.09109 73.02426 2670 ft 238 kts 271°
2026-04-27 18:48 19.09083 73.00699 2369 ft 230 kts 271°
2026-04-27 18:48 19.09058 72.99066 2074 ft 224 kts 271°
2026-04-27 18:49 19.09033 72.97402 1790 ft 222 kts 270°
2026-04-27 18:49 19.09010 72.95868 1552 ft 195 kts 270°
2026-04-27 18:49 19.08989 72.94526 1308 ft 169 kts 270°
2026-04-27 18:49 19.08971 72.93364 1085 ft 148 kts 270°
2026-04-27 18:50 19.08956 72.92325 907 ft 134 kts 270°
2026-04-27 18:50 19.08941 72.91305 742 ft 144 kts 269°
2026-04-27 18:50 19.08927 72.90293 541 ft 132 kts 270°
2026-04-27 18:50 19.08921 72.89334 401 ft 132 kts 269°
2026-04-27 18:51 19.08907 72.88379 254 ft 132 kts 268°
2026-04-27 18:51 19.08881 72.87421 106 ft 130 kts 269°
2026-04-27 18:51 19.08866 72.86496 49 ft 115 kts 269°
2026-04-27 18:51 19.08853 72.85828 48 ft 61 kts 269°
2026-04-27 18:52 19.08856 72.85536 49 ft 32 kts 273°
2026-04-27 18:52 19.08914 72.85310 47 ft 27 kts 297°
2026-04-27 18:52 19.08929 72.85281 50 ft 2 kts 298°
2026-04-27 18:53 19.09022 72.85309 49 ft 17 kts 89°
2026-04-27 18:53 19.09024 72.85428 49 ft 16 kts 89°
2026-04-27 18:53 19.09026 72.85555 49 ft 12 kts 91°
2026-04-27 18:53 19.09064 72.85602 49 ft 9 kts
2026-04-27 18:54 19.09092 72.85557 49 ft 8 kts 269°
2026-04-27 18:54 19.09093 72.85545 49 ft 0 kts 288°
2026-04-27 18:54 19.09099 72.85535 47 ft 4 kts 301°
2026-04-27 18:54 19.09127 72.85525 49 ft 2 kts 355°
2026-04-27 18:55 19.09147 72.85525 49 ft 4 kts
2026-04-27 18:55 19.09158 72.85525 49 ft 3 kts
2026-04-27 18:55 19.09160 72.85525 49 ft 0 kts